Hourly Data Report for October 19, 2015

All times are specified in Local Standard Time (LST). Add 1 hour to adjust for Daylight Saving Time where and when it is observed.

PENTICTON A
BRITISH COLUMBIA

49°27'45.000" N
119°36'08.000" W
344.40 m
1126146
71889
YYF

Download Data

Hourly Data (October 2015)
Hourly Data Report for October 19, 2015
Temp Definition
°C
Dew Point Temp Definition
°C
Rel Hum Definition
%
Wind Dir Definition
10's deg

Wind Spd Definition
km/h
Visibility Definition
km
Stn Press Definition
kPa
Hmdx Definition


Wind Chill Definition


Weather Definition


TIME
00:00 Legend Double Dagger 11.1 10.8 98 36 1 24.1 97.27     LegendNANA
01:00 Legend Double Dagger 11.1 10.8 98 36 2 24.1 97.26     Cloudy
02:00 Legend Double Dagger 11.0 10.9 99 36 3 24.1 97.24     LegendNANA
03:00 Legend Double Dagger 10.9 10.6 98 35 5 24.1 97.22     Rain Showers
04:00 Legend Double Dagger 11.1 10.8 98 36 2 24.1 97.19     Cloudy
05:00 Legend Double Dagger 11.4 11.0 97 36 1 24.1 97.18     LegendNANA
06:00 Legend Double Dagger 11.2 10.9 98 35 3 24.1 97.17     LegendNANA
07:00 Legend Double Dagger 11.3 11.0 98 6 5 19.3 97.19     Cloudy
08:00 Legend Double Dagger 11.8 11.2 96 36 1 24.1 97.21     LegendNANA
09:00 Legend Double Dagger 13.1 11.5 90 12 4 24.1 97.23     LegendNANA
10:00 Legend Double Dagger 13.7 12.1 90 17 10 24.1 97.25     Mostly Cloudy
11:00 Legend Double Dagger 15.1 12.1 82 19 11 24.1 97.20     LegendNANA
12:00 Legend Double Dagger 16.8 11.2 69 16 8 24.1 97.14     LegendNANA
13:00 Legend Double Dagger 17.5 10.7 64 18 7 24.1 97.11     Mainly Clear
14:00 Legend Double Dagger 18.8 11.0 60 16 6 24.1 97.09     LegendNANA
15:00 Legend Double Dagger 18.1 11.0 63 18 5 24.1 97.07     LegendNANA
16:00 Legend Double Dagger 18.0 11.2 64 0 1 24.1 97.10     Mostly Cloudy
17:00 Legend Double Dagger 16.7 10.8 68 31 7 24.1 97.24     Rain
18:00 Legend Double Dagger 14.0 10.5 79 34 10 19.3 97.41     Rain
19:00 Legend Double Dagger 12.6 11.5 93 36 3 24.1 97.51     Rain
20:00 Legend Double Dagger 12.1 11.3 95 34 8 24.1 97.57     Rain
21:00 Legend Double Dagger 12.4 11.3 93 1 7 24.1 97.65     LegendNANA
22:00 Legend Double Dagger 11.1 10.0 93 35 8 24.1 97.72     Cloudy
23:00 Legend Double Dagger 10.3 8.7 90 34 13 24.1 97.76     LegendNANA

Notes on Data Quality.

Legend

  • E = Estimated
  • M = Missing
  • NA = Not Available
  • ‡ = Partner data that is not subject to review by the National Climate Archives
Date modified: